Regional Weather Roundup
Issued by NWS Midland/Odessa, TX

Skip options and go directly to product.
Home | Oldest Version | Previous Version | Current Version | All | Text Only | Save Text | Print | Product List | Glossary On

Skip product version selection by date and time.   
074
ASUS44 KMAF 301610
RWRMAF
MIDLAND AREA WEATHER ROUNDUP
NATIONAL WEATHER SERVICE MIDLAND TX
1100 AM CDT THU OCT 30 2014

...IN SOUTHWEST TEXAS AND SOUTHEAST NEW MEXICO...

CITY           SKY/WX    TMP DP  RH WIND       PRES   REMARKS
ALPINE         SUNNY     73  54  50 W9        30.30R
ANDREWS        FAIR      67  57  68 W8        30.17S
ARTESIA        NOT AVBL
BIG SPRING     SUNNY     69  61  75 S10       30.17S
CARLSBAD       SUNNY     68  45  43 NW9       30.21R
DRYDEN           N/A     66  62  87 CALM      30.15S
FORT STOCKTON  SUNNY     72  54  53 W6        30.17S
GUAD PASS      SUNNY     61  47  59 SW8       30.31R
HOBBS          SUNNY     68  36  30 NW17      30.20R
MARFA          SUNNY     66  55  68 S5        30.30R
MIDLAND AIRPK  SUNNY     70  59  68 SW9       30.16R
MIDLAND INTL   SUNNY     70  59  68 SW9       30.15S
ODESSA         SUNNY     69  58  67 SW9       30.16S
PECOS          SUNNY     64  54  70 NW3       30.16S
PRESIDIO       FAIR      72  56  58 CALM      30.19S
SEMINOLE       SUNNY     69  46  43 NW14G20   30.18S
SNYDER         PTSUNNY   65  60  83 S9        30.16R
WINK           SUNNY     67  53  61 VRB5      30.16R
$$
...OTHER STATIONS IN TEXAS...

CITY           SKY/WX    TMP DP  RH WIND       PRES   REMARKS
ABILENE        SUNNY     71  59  65 S10       30.15R
AMARILLO       SUNNY     60  35  39 N20G28    30.25R
AUSTIN         MOSUNNY   68  56  65 CALM      30.16S
BROWNSVILLE    MOSUNNY   83  69  62 CALM      30.10S
CORPUS CHRISTI PTSUNNY   77  72  84 NE7       30.11R
DALLAS FTW     MOSUNNY   68  47  46 S10       30.16F
DEL RIO        SUNNY     73  65  75 SE12      30.12S
EL PASO        SUNNY     62  38  40 N10       30.24R
HOUSTON INT    MOSUNNY   70  50  49 E9        30.15S
LUBBOCK        SUNNY     63  45  51 N13       30.17R
SAN ANGELO     SUNNY     74  61  63 S14       30.14S
SAN ANTONIO    PTSUNNY   72  62  71 VRB5      30.16S
WACO           PTSUNNY   66  49  54 S9        30.18S
WICHITA FALLS  NOT AVBL
$$
...OTHER LOCATIONS IN NEW MEXICO...

CITY           SKY/WX    TMP DP  RH WIND       PRES   REMARKS
ALAMAGORDO     NOT AVBL
ALBUQUERQUE    SUNNY     53  14  21 N10       30.36R
CANNON AFB     SUNNY     64  31  29 NE20G32   30.25R
CLOVIS         SUNNY     63  36  36 NE22G29   30.28R
HOLLOMAN AFB   MOSUNNY   59  37  43 S2        30.25R
ROSWELL        SUNNY     63  33  32 NW12      30.25R
RUIDOSO        SUNNY     61  19  20 N12       30.40R
SANTA FE       SUNNY     55  13  18 N7        30.39R
TRUTH OR CONSE SUNNY     63  33  32 N5        30.30R
TUCUMCARI      SUNNY     65  26  23 NE14      30.29R
$$

USA.gov is the U.S. government's official web portal to all federal, state and local government web resources and services.